Location: Skalnate Pleso
(49.1889°N, 20.2450°E)
Time: 04:21:33
(UTC+01:00)

ATLAS CENTAUR R/B - Pass Details

Date: 19 November 2019
Orbit: 457 x 691 km, 64.7° (Epoch: 30 November)

Event Time Altitude Azimuth Distance (km) Brightness Sun altitude
Exits shadow 04:19:20 11° 187° (S) 2,036 4.1 -25.1°
Maximum altitude 04:23:36 39° 120° (ESE) 1,014 3.0 -24.4°
Drops below altitude 10° 04:28:03 10° 52° (NE) 2,091 4.9 -23.6°
Sets 04:30:25 0° 45° (NE) 2,978 5.7 -23.2°
